Regional Weather Roundup
Issued by NWS Grand Forks, ND

Home | Current Version | Previous Version | Text Only | Print | Product List | Glossary Off
Versions: 1 2 3 4 5 6 7 8 9 10 11 12 13 14 15 16 17 18 19 20 21 22 23 24 25 26 27 28 29 30 31 32 33 34 35 36 37 38 39 40 41 42 43 44 45 46 47 48 49 50

000
ASUS43 KFGF 280531
RWRFGF
PRAIRIE TO PINES  WEATHER ROUNDUP
NATIONAL WEATHER SERVICE EASTERN NORTH DAKOTA/GRAND FORKS ND
1200 AM CDT TUE JUL 28 2015

 **SATELLITE DATA USED TO AUGMENT SKY COVER AT AUTOMATED STATIONS**
 *****  WEATHER ACROSS EASTERN NORTH DAKOTA  *****

CITY           SKY/WX    TMP DP  RH WIND       PRES   REMARKS
GRAND FORKS    PTCLDY    76  71  85 SE10      29.72F
GRAND FRKS AFB MOCLDY    76  72  86 S10       29.74F
GRAND FRKS NWS   N/A     77 N/A N/A SE12        N/A
DEVILS LAKE    CLOUDY    77  68  73 SE16      29.68F
FARGO          CLEAR     79  72  79 SE16G24   29.75F
WAHPETON ARPT  PTCLDY    73  70  88 SE13G18   29.76F
$$

 ***** WEATHER ACROSS CENTRAL AND WESTERN NORTH DAKOTA  *****

CITY           SKY/WX    TMP DP  RH WIND       PRES   REMARKS
BISMARCK       LGT RAIN  72  62  71 S10G20    29.62F
MINOT          LGT RAIN  81  59  47 S23G35    29.58F
JAMESTOWN      MOCLDY    77  74  90 SE13      29.69F
MINOT AFB      CLOUDY    79  68  69 S16       29.59R
GARRISON         N/A     75  61  61 S16G23    29.63R
WILLISTON      LGT RAIN  64  60  87 SW16G26   29.62F
DICKINSON      CLOUDY    63  59  87 W16G24    29.70F
HETTINGER      CLOUDY    66  57  72 W10       29.72R
$$

 *****  OTHER AIRPORT OBSERVATIONS IN OUR AREA  *****

CITY           SKY/WX    TMP DP  RH WIND       PRES   REMARKS
WALHALLA       FAIR      73  73 100 MISG      29.72F
GRAFTON AIRPOR FAIR      75  73  94 SE9       29.73F
VALLEY CITY AR MOCLDY    75  75 100 S13       29.72F
CANDO          FAIR      75  73  94 SE21G28   29.68F
CAVALIER APRT  FAIR      75  72  88 SE8       29.72F
GWINNER          N/A     77  73  88 SE14      29.72F
ROLLA          MOCLDY    73  73 100 SE16      29.69F
 ***** THE ABOVE OBSERVATIONS ARE NON NWS ARE NOT QUALITY
       CONTROLLED AND MAY MIS-REPORT RAIN FOR SNOW...
$$

  *****  WEATHER ACROSS NORTHERN MINNESOTA  *****

CITY           SKY/WX    TMP DP  RH WIND       PRES   REMARKS
FLAG ISLAND    CLEAR     81  70  69 SE10      29.82F
WARROAD        PTCLDY    75  70  83 SE9       29.82F
ROSEAU         PTCLDY    73  68  83 SE6       29.81F
HALLOCK        PTCLDY    77  72  83 SE12      29.74S
THF RVR FALLS  PTCLDY    73  70  88 SE12      29.78F
BAUDETTE       CLEAR     73  66  78 SE8       29.85F
WASKISH        CLEAR     72  68  88 E6        29.85F
CROOKSTON      PTCLDY    75  72  88 SE9       29.76F
STEPHEN NDAWN    N/A     75  72  88 SE8         N/A
GREENBUSH NDAW   N/A     73  70  88 SE8         N/A
$$
  *****  WEATHER ACROSS CENTRAL AND WEST MINNESOTA  *****

CITY           SKY/WX    TMP DP  RH WIND       PRES   REMARKS
FOSSTON        CLEAR     73  68  83 SE7       29.81F
BEMIDJI        PTCLDY    74  70  85 SE13      29.85F
PARK RAPIDS    CLEAR     76  69  79 SE12      29.86F
ELBOW LAKE     FAIR      75  72  89 SE17      29.79F
WADENA         PTCLDY    73  70  88 SE13      29.84F
DETROIT LAKES  PTCLDY    75  72  88 SE12G21   29.82F
MOORHEAD       CLEAR     77  72  83 SE9G16    29.75F
FERGUS FALLS   CLEAR     77  72  83 SE17      29.77F
MORRIS MN      CLEAR     75  72  88 SE14G20   29.78F
STAPLES        PTCLDY    73  70  88 SE8       29.86F
$$
  *****  WEATHER ELSEWHERE ACROSS MINNESOTA  *****

CITY           SKY/WX    TMP DP  RH WIND       PRES   REMARKS
DULUTH         CLEAR     71  64  78 SE6       29.96S
INTRNTL FALLS  CLEAR     74  66  76 SE3       29.90S
ELY            CLEAR     70  61  73 CALM      29.96S
CLOQUET        PTCLDY    70  64  83 E3        29.95S
WHEATON        CLEAR     73  70  88 SE15      29.77F
BRAINERD       CLEAR     74  70  87 SE9       29.90F
HIBBING        CLEAR     68  63  84 SE7       29.94S
ALEXANDRIA     CLEAR     74  72  93 SE12      29.86F
SAINT CLOUD    CLEAR     75  72  90 SE7       29.88F
MINNEAPOLIS    PTCLDY    77  71  82 SE13      29.91S
$$

  *****  WEATHER ACROSS SOUTH DAKOTA  *****

CITY           SKY/WX    TMP DP  RH WIND       PRES   REMARKS
SIOUX FALLS    CLOUDY    76  70  82 SE13G22   29.79F
BROOKINGS      CLOUDY    75  70  83 SE14G23   29.80F
WATERTOWN      MOCLDY    76  72  87 SE12G21   29.76F
HURON          CLOUDY    80  73  79 SE13G24   29.68F
SISSETON         N/A     74  72  93 S7        29.75F
ABERDEEN       MOCLDY    78  71  79 SE13      29.69F
MITCHELL       PTCLDY    79  75  87 SE18G28   29.72F
PIERRE         CLOUDY    69  64  84 NE13      29.63F
MOBRIDGE       LGT RAIN  70  67  90 S8        29.70F
RAPID CITY     PTCLDY    64  58  80 N18       29.76R
$$

  *****  SOME WEATHER IN NEARBY STATES *****

CITY           SKY/WX    TMP DP  RH WIND       PRES   REMARKS
GLASGOW MT     LGT RAIN  57  55  93 NW13      29.68F
GREAT FALLS MT LGT RAIN  50  49  96 SW13      30.00R
CHEYENNE WY    CLEAR     68  36  30 NW15      30.02R
SCOTTSBLUFF NE PTCLDY    69  61  75 NW7       29.83R
OMAHA NE       MOCLDY    78  71  79 SE16      29.85S
DES MOINES IA  PTCLDY    74  69  85 SE6       29.91S
DAVENPORT IA   PTCLDY    73  70  90 CALM      29.96R
CHICAGO IL     MOCLDY    74  66  76 E8        30.00F
EAU CLAIRE WI  CLEAR     75  67  76 SE7       29.95S
LA CROSSE WI   CLEAR     73  69  87 E5        29.96R
$$

  *****  SOME NATIONAL WEATHER *****

CITY           SKY/WX    TMP DP  RH WIND       PRES   REMARKS
LA GUARDIA NY  MOCLDY    78  67  68 SW7       30.01S
RALEIGH NC     MOCLDY    78  70  76 S5        30.02S
ATLANTA GA     PTCLDY    80  70  71 N3        30.01R
NEW ORLEANS LA PTCLDY    83  73  72 SW8       29.97R
OKLAHOMA CITY  CLEAR     80  72  76 S9        29.92S
ALBUQUERQUE NM CLOUDY    81  50  33 S5        30.08R
SALT LAKE CITY CLEAR     66  41  40 N14       30.13R
LOS ANGELES CA MOCLDY    67  64  90 W9        29.91R
BOISE ID       CLEAR     64  32  30 N5        30.15R
SEATTLE WA     MOCLDY    68  50  52 N3        30.24R
$$

*** WEATHER ACROSS MANITOBA...SASKATCHEWAN AND ONTARIO ***
                ***ONTARIO***

CITY           SKY/WX    TMP DP  RH WIND       PRES   REMARKS
GERALDTON      CLEAR     70  61  73 SW6       29.95S
THUNDER BAY    CLEAR     63  61  94 NE5       29.96S
SIOUX LOOKOUT  PTCLDY    64  64 100 S2        29.90S
TORONTO        CLEAR     75  61  60 N7        30.03S
BIG TROUT LK   CLEAR     64  57  77 NW5       29.86S
PICKLE LAKE    NOT AVBL
DRYDEN         CLEAR     75  63  64 S8        29.90S
KENORA         PTCLDY    75  66  73 S6        29.88
$$
                *** MANITOBA***

CITY           SKY/WX    TMP DP  RH WIND       PRES   REMARKS
BRANDON        LGT RAIN  73  72  94 SE12      29.65F
DAUPHIN        LGT RAIN  64  59  82 SE8       29.72F
ISLAND LAKE    CLOUDY    70  64  83 SE3       29.86F
PILOT MOUND      N/A     73  70  88 E13G18      N/A
THE PAS        PTCLDY    59  54  82 E2        29.82F
THOMPSON       MOCLDY    61  54  77 CALM      29.83F
WINNIPEG       MOCLDY    79  70  73 SE13      29.75F
LYNN LAKE      CLOUDY    63  52  67 SW6       29.82S
CHURCHILL      PTCLDY    61  59  94 E3        29.75S
GILLAM         PTCLDY    66  57  72 SW3       29.81F
$$
                ***SASKATCHEWAN***

CITY           SKY/WX    TMP DP  RH WIND       PRES   REMARKS
ESTEVAN        CLOUDY    73  61  64 S12G21    29.58R
KINDERSLEY     MOCLDY    57  55  94 N14       29.84F
LLOYDMINSTER   PTCLDY    55  54  94 W3        29.87F
PRINCE ALBERT  MOCLDY    61  59  94 N6        29.81F
REGINA         TSTM      61  59  94 NE12G18   29.61R
YORKTON        CLOUDY    63  61  94 W7        29.68R
N. BATTLEFORD  CLOUDY    57  55  94 N7        29.86S
LA RONGE       PTCLDY    55  54  94 W5        29.84F
SASKATOON      LGT RAIN  59  59 100 N13G21    29.81F
SWIFT CURRENT  RAIN      59 N/A N/A N20       29.74R
$$
NOTE: THESE ARE AUTOMATED STATIONS WITH LIMITED QUALITY CONTROL
      "FAIR" INDICATES FEW OR NO CLOUDS BELOW 12,000 FEET WITH NO
      SIGNIFICANT WEATHER AND/OR OBSTRUCTIONS TO VISIBILITY.
      SKY/WX - SKY CONDITION AND SIGNIFICANT WEATHER.
      TMP - AIR TEMPERATURE.    DP   - DEWPOINT TEMPERATURE.
      RH  - RELATIVE HUMIDITY.  PRES - PRESSURE.
      HX  - HEAT INDEX.         WCI  - WIND CHILL INDEX.
$


USA.gov is the U.S. government's official web portal to all federal, state and local government web resources and services.